Skip Page Navigation
NASA JPL Caltech
NASA Logo - Jet Propulsion Laboratory + View the NASA Portal
+ Center for Near-Earth Object Studies
JPL Home Earth Solar System Stars & Galaxies Technology
JPL Solar System Dynamics
BODIES ORBITS EPHEMERIDES TOOLS PHYSICAL DATA DISCOVERY FAQ SITE MAP
IMPORTANT: The SSD Announcement email list is now available. Major changes are coming in the near future, including possible hostname and/or URL changes. To be notified of such changes, subscribe to this email list.

Please visit this page for more details.


JPL Small-Body Database Browser
Search: [ help ]  
469466 (2002 RR60)
Classification: Main-belt Asteroid          SPK-ID: 2469466
Ephemeris | Orbit Diagram | Orbital Elements | Mission Design | Physical Parameters | Discovery Circumstances ]

[ show orbit diagram ]
Orbital Elements at Epoch 2458600.5 (2019-Apr-27.0) TDB
Reference: JPL 10 (heliocentric ecliptic J2000)
 Element Value Uncertainty (1-sigma)   Units 
e .2301472514571388 7.521e-08  
a 2.303892367978714 1.4782e-08 au
q 1.773657871835334 1.7909e-07 au
i 5.315303657609881 5.8769e-06 deg
node 304.5335413598825 8.5753e-05 deg
peri 8.429211901627783 8.886e-05 deg
M 294.208249647783 2.2178e-05 deg
tp 2458833.932137029109
(2019-Dec-16.43213703)
7.8902e-05 TDB
period 1277.296452527765
3.50
1.2293e-05
3.366e-08
d
yr
n .281845298550357 2.7125e-09 deg/d
Q 2.834126864122093 1.8184e-08 au
  Orbit Determination Parameters
   # obs. used (total)      114  
   data-arc span      6154 days (16.85 yr)  
   first obs. used      2002-08-28  
   last obs. used      2019-07-04  
   planetary ephem.      DE431  
   SB-pert. ephem.      SB431-N16  
   condition code      0  
   norm. resid. RMS      .60263  
   source      ORB  
   producer      Otto Matic  
   solution date      2019-Sep-24 08:02:29  

Additional Information
 Earth MOID = .758896 au 
 Jupiter MOID = 2.44981 au 
 T_jup = 3.548 
[ show covariance matrix ]

Ephemeris | Orbit Diagram | Orbital Elements | Mission Design | Physical Parameters | Discovery Circumstances ]

Physical Parameter Table
Parameter Symbol Value Units Sigma Reference Notes
absolute magnitude H 17.9   n/a MPO434688  

469466 (2002 RR60)          Discovered 2002-Sep-05 by LONEOS at Anderson Mesa
Reference: Last Updated: 2016-08-22
Ephemeris | Orbit Diagram | Orbital Elements | Mission Design | Physical Parameters | Discovery Circumstances ]
ABOUT SSD CREDITS/AWARDS PRIVACY/COPYRIGHT GLOSSARY LINKS
FirstGov
(server date/time)  
NASA Home Page
Site Manager:   Ryan S. Park
Webmaster  Alan B. Chamberlin